Hourly Data Report for October 01, 2013

All times are specified in Local Standard Time (LST). Add 1 hour to adjust for Daylight Saving Time where and when it is observed.

IQALUIT CLIMATE
NUNAVUT

63°44'50.000" N
68°32'40.000" W
33.50 m
2402592
71321
XFB

Download Data

Hourly Data (October 2013)
Hourly Data Report for October 1, 2013
Temp Definition
°C
Dew Point Temp Definition
°C
Rel Hum Definition
%
Wind Dir Definition
10's deg

Wind Spd Definition
km/h
Visibility Definition
km
Stn Press Definition
kPa
Hmdx Definition


Wind Chill Definition


Weather Definition


TIME
00:00 2.8 -0.5 79 26 13   99.62     LegendNANA
01:00 2.4 -0.3 82 29 6   99.68     LegendNANA
02:00 2.4 -0.1 84   0   99.75     LegendNANA
03:00 2.5 -0.5 81 25 6   99.80     LegendNANA
04:00 2.4 -0.4 82 27 9   99.85     LegendNANA
05:00 2.3 -0.6 81 24 9   99.88     LegendNANA
06:00 1.9 -0.5 84 29 6   99.91     LegendNANA
07:00 2.0 -1.0 80 30 6   99.96     LegendNANA
08:00 2.0 -1.8 76 27 15   100.01     LegendNANA
09:00 2.5 -1.2 77 24 9   100.03     LegendNANA
10:00 2.7 -1.2 75 21 7   100.04     LegendNANA
11:00 3.0 -1.2 74 22 9   100.05     LegendNANA
12:00 3.8 -1.0 71 24 9   100.03     LegendNANA
13:00 3.6 -1.5 69 26 13   100.04     LegendNANA
14:00 4.3 -0.9 69 25 9   100.05     LegendNANA
15:00 3.6 -1.5 69 23 6   100.07     LegendNANA
16:00 2.3 -1.1 78 16 4   100.06     LegendNANA
17:00 1.1 -1.3 84 15 4   100.07     LegendNANA
18:00 0.9 -0.8 88 16 2   100.10     LegendNANA
19:00 -0.4 -1.3 94 35 6   100.10   -2 LegendNANA
20:00 -0.5 -1.5 93 1 4   100.08   -2 LegendNANA
21:00 0.1 -1.3 90 5 2   100.06     LegendNANA
22:00 0.6 -0.6 92 13 4   100.05     LegendNANA
23:00 0.7 -0.7 90   0   100.00     LegendNANA

Notes on Data Quality.

Legend

  • E = Estimated
  • M = Missing
  • NA = Not Available
  • ‡ = Partner data that is not subject to review by the National Climate Archives
Date modified: